Regional Weather Roundup
Issued by NWS Goodland, KS

Home | Current Version | Previous Version | Text Only | Print | Product List | Glossary Off
Versions: 1 2 3 4 5 6 7 8 9 10 11 12 13 14 15 16 17 18 19 20 21 22 23 24 25 26 27 28 29 30 31 32 33 34 35 36 37 38 39 40 41 42 43 44 45 46 47 48 49 50

000
ASUS43 KGLD 011508
RWRGLD

GOODLAND FORECAST AREA HOURLY WEATHER ROUNDUP
NATIONAL WEATHER SERVICE GOODLAND KS
900 AM MDT SAT OCT 01 2016

...OFFICIAL OBSERVATIONS...

CITY           SKY/WX    TMP DP  RH WIND       PRES   REMARKS
GOODLAND KS    CLOUDY    58  47  66 S8        30.12R
HILL CITY KS   CLOUDY    60  51  72 E5        30.13S
IMPERIAL NEB   SUNNY     58  46  64 SE8       30.11S
MCCOOK NEB     MOSUNNY   55  47  74 S6        30.12F
AKRON CO       SUNNY     60  46  59 W10       30.13R
BURLINGTON CO  SUNNY     58  47  66 S3        30.13S
LIMON CO       SUNNY     63  44  50 W3        30.16S
$$

...UNOFFICIAL OBSERVATIONS...

CITY           SKY/WX    TMP DP  RH WIND       PRES   REMARKS
COLBY KS       SUNNY     63  50  63 SE8       30.14R
LENORA KS        N/A     60  32  34 MISG        N/A
NORTON KS      SUNNY     61  43  51 E6        30.12S
SHARON SPRINGS   N/A     58  50  75 SE7         N/A
KIT CARSON CO    N/A     56  49  76 CALM        N/A
$$



USA.gov is the U.S. government's official web portal to all federal, state and local government web resources and services.